Location: Black Swamp Observatory
(41.3920°N, 84.1250°W)
Time: 02:26:36
(UTC-04:00)

A-11 Canister half - Pass Details

Date: 26 January 2022
Orbit: 1527 x 1682 km, 47.3° (Epoch: 27 May)

Event Time Altitude Azimuth Distance (km) Brightness Sun altitude
Rises 18:59:39 0° 295° (WNW) 4,789 12.5 -14.0°
Reaches altitude 10° 19:03:08 10° 286° (WNW) 3,824 12.1 -14.7°
Maximum altitude 19:11:21 32° 229° (SW) 2,531 10.7 -16.2°
Drops below altitude 10° 19:19:47 10° 170° (S) 3,906 11.1 -17.7°
Sets 19:23:24 0° 161° (SSE) 4,904 11.5 -18.4°
